Location: Saint Mary
(48.7436°N, 113.4291°W)
Time: 22:48:16
(UTC+00:00)

A-11 Canister half - All Passes

Search period start: 28 May 2022 00:00
Search period end: 07 June 2022 00:00
Orbit: 1513 x 1686 km, 47.2° (Epoch: 27 May)

Date Brightness Start Highest point End Pass type
(mag) Time Alt. Az. Time Alt. Az. Time Alt. Az.
28 May - 12:18:56 10° SE 12:21:50 12° ESE 12:24:43 10° ESE daylight
28 May - 14:16:02 10° SSW 14:24:40 40° SE 14:33:05 10° ENE daylight
28 May - 16:19:19 10° WSW 16:28:45 74° SSE 16:37:58 10° E daylight
28 May - 18:24:09 10° W 18:33:30 80° S 18:42:45 10° ESE daylight
28 May - 20:29:03 10° WNW 20:37:50 50° SSW 20:46:35 10° SE daylight
28 May - 22:35:25 10° W 22:40:56 18° SW 22:46:30 10° SSW daylight
29 May - 11:57:25 10° SE 11:59:04 11° ESE 12:00:41 10° ESE daylight
29 May - 13:53:15 10° SSW 14:01:49 38° SE 14:10:08 10° ENE daylight
29 May - 15:56:24 10° WSW 16:05:51 73° SSE 16:15:03 10° E daylight
29 May - 18:01:12 10° W 18:10:36 81° S 18:19:50 10° ESE daylight
29 May - 20:06:07 10° WNW 20:14:58 52° SSW 20:23:47 10° SE daylight
29 May - 22:12:16 10° W 22:18:09 19° SW 22:24:03 10° S daylight
30 May - 13:30:30 10° SSW 13:38:58 36° SE 13:47:12 10° ENE daylight
30 May - 15:33:29 10° WSW 15:42:57 71° SSE 15:52:09 10° E daylight
30 May - 17:38:16 10° W 17:47:41 81° S 17:56:56 10° E daylight
30 May - 19:43:11 10° WNW 19:52:06 54° SSW 20:00:58 10° SE daylight
30 May - 21:49:08 10° W 21:55:21 20° SW 22:01:34 10° S daylight
31 May - 13:07:46 10° SSW 13:16:07 35° SE 13:24:15 10° E daylight
31 May - 15:10:34 10° WSW 15:20:02 70° SSE 15:29:15 10° E daylight
31 May - 17:15:20 10° W 17:24:46 82° S 17:34:01 10° E daylight
31 May - 19:20:15 10° WNW 19:29:14 56° SSW 19:38:09 10° SE daylight
31 May - 21:26:03 10° W 21:32:33 22° SW 21:39:04 10° S daylight
01 Jun - 12:45:02 10° SSW 12:53:16 33° SE 13:01:17 10° E daylight
01 Jun - 14:47:39 10° WSW 14:57:08 68° SSE 15:06:20 10° E daylight
01 Jun - 16:52:23 10° W 17:01:51 82° S 17:11:06 10° E daylight
01 Jun - 18:57:19 10° WNW 19:06:22 58° SSW 19:15:19 10° SE daylight
01 Jun - 21:02:59 10° W 21:09:45 23° SW 21:16:31 10° S daylight
02 Jun - 12:22:19 10° SSW 12:30:25 31° SE 12:38:19 10° E daylight
02 Jun - 14:24:45 10° WSW 14:34:14 66° SSE 14:43:26 10° E daylight
02 Jun - 16:29:26 10° W 16:38:56 83° S 16:48:12 10° E daylight
02 Jun - 18:34:22 10° WNW 18:43:29 60° SSW 18:52:28 10° SE daylight
02 Jun - 20:39:56 10° W 20:46:57 25° SW 20:53:57 10° S daylight
03 Jun - 11:59:37 10° SSW 12:07:35 30° SE 12:15:20 10° E daylight
03 Jun - 14:01:50 10° SW 14:11:20 65° SSE 14:20:32 10° ENE daylight
03 Jun - 16:06:28 10° W 16:16:00 83° S 16:25:18 10° E daylight
03 Jun - 18:11:26 10° WNW 18:20:36 62° SSW 18:29:38 10° SE daylight
03 Jun - 20:16:54 10° W 20:24:08 27° SW 20:31:21 10° S daylight
04 Jun - 11:36:57 10° S 11:44:45 28° SE 11:52:20 10° E daylight
04 Jun - 13:38:56 10° SW 13:48:26 63° SSE 13:57:37 10° ENE daylight
04 Jun - 15:43:31 10° W 15:53:05 83° S 16:02:23 10° E daylight
04 Jun - 17:48:30 10° WNW 17:57:43 64° SSW 18:06:47 10° SE daylight
04 Jun - 19:53:52 10° W 20:01:19 28° SW 20:08:44 10° S daylight
05 Jun - 11:14:17 10° S 11:21:55 27° SE 11:29:20 10° E daylight
05 Jun - 13:16:03 10° SW 13:25:32 61° SSE 13:34:42 10° ENE daylight
05 Jun - 15:20:34 10° W 15:30:10 83° S 15:39:28 10° E daylight
05 Jun - 17:25:33 10° W 17:34:50 66° SSW 17:43:55 10° ESE daylight
05 Jun - 19:30:51 10° W 19:38:30 30° SW 19:46:05 10° SSE daylight
06 Jun - 10:51:39 10° S 10:59:05 25° SE 11:06:18 10° E visible
06 Jun - 12:53:09 10° SW 13:02:38 59° SSE 13:11:48 10° ENE daylight
06 Jun - 14:57:36 10° W 15:07:14 83° S 15:16:34 10° E daylight
06 Jun - 17:02:36 10° W 17:11:56 68° SSW 17:21:04 10° ESE daylight
06 Jun - 19:07:51 10° W 19:15:41 32° SW 19:23:26 10° SSE daylight
